,,Stat6,,Stat2,,Stat8,,Stat9,,Stat10,,Wind1,,Wind1,
time,status,PA1M_AVG,status,PR1M_SUM,status,RH1M_AVG,status,SR1M_AVG,status,TA1M_AVG,status,W1dAve1m,status,W1sAve1m,
2005-06-01, 00:00:00,VALID,917.861,VALID,0,VALID,99.1877,VALID,0.0169808,VALID,20.2562,VALID,6,VALID,0.824591,
2005-06-01, 00:01:00,VALID,917.851,VALID,0,VALID,99.2437,VALID,0.0169808,VALID,20.2365,VALID,6,VALID,0.972301,
2005-06-01, 00:02:00,VALID,917.844,VALID,0,VALID,99.2564,VALID,0.0509425,VALID,20.233,VALID,358,VALID,0.766868,
2005-06-01, 00:03:00,VALID,917.831,VALID,0,VALID,99.2462,VALID,0.0169808,VALID,20.2166,VALID,350,VALID,0.755526,
2005-06-01, 00:04:00,VALID,917.811,VALID,0,VALID,99.2843,VALID,0,VALID,20.2206,VALID,351,VALID,0.724787,
2005-06-01, 00:05:00,VALID,917.794,VALID,0,VALID,99.3301,VALID,0.0169808,VALID,20.2144,VALID,358,VALID,0.587612,
2005-06-01, 00:06:00,VALID,917.782,VALID,0,VALID,99.1852,VALID,0.0169808,VALID,20.1854,VALID,4,VALID,0.663881,
2005-06-01, 00:07:00,VALID,917.76,VALID,0,VALID,99.2576,VALID,-0.0679233,VALID,20.1894,VALID,4,VALID,0.724144,
2005-06-01, 00:08:00,VALID,917.73,VALID,0,VALID,99.2449,VALID,-0.101885,VALID,20.1834,VALID,4,VALID,0.604048,
2005-06-01, 00:09:00,VALID,917.728,VALID,0,VALID,99.3098,VALID,-0.101885,VALID,20.1869,VALID,4,VALID,0.704268,
2005-06-01, 00:10:00,VALID,917.722,VALID,0,VALID,99.2996,VALID,-0.0679233,VALID,20.1804,VALID,4,VALID,0.646129,
2005-06-01, 00:11:00,VALID,917.717,VALID,0,VALID,99.2958,VALID,-0.0679233,VALID,20.1831,VALID,351,VALID,0.815225,
2005-06-01, 00:12:00,VALID,917.726,VALID,0,VALID,99.292,VALID,-0.0679233,VALID,20.1665,VALID,352,VALID,0.730741,
2005-06-01, 00:13:00,VALID,917.725,VALID,0,VALID,99.3479,VALID,-0.0509425,VALID,20.1444,VALID,356,VALID,0.748326,
2005-06-01, 00:14:00,VALID,917.741,VALID,0,VALID,99.4051,VALID,-0.101885,VALID,20.1444,VALID,5,VALID,0.925391,
2005-06-01, 00:15:00,VALID,917.755,VALID,0,VALID,99.3619,VALID,-0.0509425,VALID,20.135,VALID,5,VALID,0.665799,
2005-06-01, 00:16:00,VALID,917.78,VALID,0,VALID,99.3708,VALID,-0.0679233,VALID,20.1121,VALID,351,VALID,0.764844,
2005-06-01, 00:17:00,VALID,917.789,VALID,0,VALID,99.4357,VALID,-0.0849042,VALID,20.1027,VALID,344,VALID,0.748047,
2005-06-01, 00:18:00,VALID,917.769,VALID,0,VALID,99.4496,VALID,-0.0849042,VALID,20.1029,VALID,348,VALID,0.814878,
2005-06-01, 00:19:00,VALID,917.734,VALID,0,VALID,99.3772,VALID,-0.0679233,VALID,20.09,VALID,348,VALID,0.868459,
2005-06-01, 00:20:00,VALID,917.706,VALID,0,VALID,99.2869,VALID,-0.0679233,VALID,20.0838,VALID,3,VALID,1.08718,
2005-06-01, 00:21:00,VALID,917.67,VALID,0,VALID,99.0033,VALID,-0.101885,VALID,20.0386,VALID,10,VALID,1.05895,
2005-06-01, 00:22:00,VALID,917.654,VALID,0,VALID,98.9258,VALID,-0.0169808,VALID,19.9819,VALID,1,VALID,0.905469,
2005-06-01, 00:23:00,VALID,917.665,VALID,0,VALID,99.0415,VALID,0,VALID,19.9658,VALID,344,VALID,0.816939,
2005-06-01, 00:24:00,VALID,917.677,VALID,0,VALID,99.1292,VALID,0.0169808,VALID,19.9623,VALID,319,VALID,0.574119,
2005-06-01, 00:25:00,VALID,917.669,VALID,0,VALID,99.2983,VALID,0.0339617,VALID,19.9946,VALID,282,VALID,0.629092,
2005-06-01, 00:26:00,VALID,917.661,VALID,0,VALID,99.2004,VALID,0.0169808,VALID,19.9948,VALID,332,VALID,0.792039,
2005-06-01, 00:27:00,VALID,917.633,VALID,0,VALID,99.03,VALID,0.0169808,VALID,19.9916,VALID,345,VALID,0.752841,
2005-06-01, 00:28:00,VALID,917.611,VALID,0,VALID,98.8367,VALID,0.0339617,VALID,19.9849,VALID,356,VALID,0.915451,
2005-06-01, 00:29:00,VALID,917.595,VALID,0,VALID,98.8088,VALID,0,VALID,19.9849,VALID,344,VALID,0.835243,
2005-06-01, 00:30:00,VALID,917.6,VALID,0,VALID,98.7833,VALID,0.0339617,VALID,19.9687,VALID,359,VALID,1.01663,
2005-06-01, 00:31:00,VALID,917.589,VALID,0,VALID,98.8393,VALID,0.0339617,VALID,19.9558,VALID,343,VALID,0.843395,
2005-06-01, 00:32:00,VALID,917.607,VALID,0,VALID,98.9308,VALID,0.0339617,VALID,19.9665,VALID,351,VALID,0.527435,
2005-06-01, 00:33:00,VALID,917.601,VALID,0,VALID,98.8889,VALID,0.0169808,VALID,19.9461,VALID,350,VALID,0.43316,
2005-06-01, 00:34:00,VALID,917.579,VALID,0,VALID,98.9054,VALID,0.0509425,VALID,19.9432,VALID,350,VALID,0.280107,
2005-06-01, 00:35:00,VALID,917.556,VALID,0,VALID,98.8456,VALID,0.0509425,VALID,19.93,VALID,350,VALID,0.290365,
2005-06-01, 00:36:00,VALID,917.53,VALID,0,VALID,98.7732,VALID,0.0509425,VALID,19.9203,VALID,9,VALID,0.546484,
2005-06-01, 00:37:00,VALID,917.515,VALID,0,VALID,98.7325,VALID,0.0169808,VALID,19.9201,VALID,35,VALID,0.450707,
2005-06-01, 00:38:00,VALID,917.504,VALID,0,VALID,98.6282,VALID,0,VALID,19.9402,VALID,35,VALID,0.145419,
2005-06-01, 00:39:00,VALID,917.504,VALID,0,VALID,98.3866,VALID,0,VALID,19.9434,VALID,35,VALID,0.0924479,
2005-06-01, 00:40:00,VALID,917.497,VALID,0,VALID,98.192,VALID,0,VALID,19.934,VALID,35,VALID,0.289244,
2005-06-01, 00:41:00,VALID,917.488,VALID,0,VALID,98.1882,VALID,-0.0169808,VALID,19.9114,VALID,41,VALID,0.456745,
2005-06-01, 00:42:00,VALID,917.477,VALID,0,VALID,98.1234,VALID,0,VALID,19.8955,VALID,47,VALID,0.402344,
2005-06-01, 00:43:00,VALID,917.465,VALID,0,VALID,98.0178,VALID,0,VALID,19.8495,VALID,47,VALID,0.204368,
2005-06-01, 00:44:00,VALID,917.459,VALID,0,VALID,97.5842,VALID,0,VALID,19.8051,VALID,47,VALID,0.0496003,
2005-06-01, 00:45:00,VALID,917.435,VALID,0,VALID,97.705,VALID,0.0169808,VALID,19.7628,VALID,21,VALID,0.377404,
2005-06-01, 00:46:00,VALID,917.386,VALID,0,VALID,98.1246,VALID,0,VALID,19.7437,VALID,3,VALID,0.444602,
2005-06-01, 00:47:00,VALID,917.344,VALID,0,VALID,98.4667,VALID,0,VALID,19.7435,VALID,3,VALID,0.764535,
2005-06-01, 00:48:00,VALID,917.295,VALID,0,VALID,98.3637,VALID,0.0169808,VALID,19.734,VALID,3,VALID,0.716146,
2005-06-01, 00:49:00,VALID,917.285,VALID,0,VALID,98.2365,VALID,0,VALID,19.6918,VALID,1,VALID,0.706577,
2005-06-01, 00:50:00,VALID,917.29,VALID,0,VALID,98.618,VALID,0,VALID,19.6886,VALID,325,VALID,1.06822,
2005-06-01, 00:51:00,VALID,917.308,VALID,0,VALID,98.8227,VALID,0,VALID,19.7241,VALID,316,VALID,0.432165,
2005-06-01, 00:52:00,VALID,917.324,VALID,0,VALID,98.6892,VALID,0,VALID,19.7733,VALID,311,VALID,0.433854,
2005-06-01, 00:53:00,VALID,917.347,VALID,0,VALID,98.4616,VALID,0,VALID,19.815,VALID,301,VALID,0.209604,
2005-06-01, 00:54:00,VALID,917.359,VALID,0,VALID,98.117,VALID,0,VALID,19.8247,VALID,300,VALID,0.123884,
2005-06-01, 00:55:00,VALID,917.352,VALID,0,VALID,98.206,VALID,0,VALID,19.8274,VALID,261,VALID,0.30785,
2005-06-01, 00:56:00,VALID,917.332,VALID,0,VALID,98.1374,VALID,-0.0169808,VALID,19.8185,VALID,260,VALID,0,
2005-06-01, 00:57:00,VALID,917.295,VALID,0,VALID,98.0255,VALID,0,VALID,19.7827,VALID,261,VALID,0.10625,
2005-06-01, 00:58:00,VALID,917.276,VALID,0,VALID,97.8055,VALID,0.0169808,VALID,19.7405,VALID,292,VALID,0.369097,
2005-06-01, 00:59:00,VALID,917.24,VALID,0,VALID,98.0789,VALID,0.0169808,VALID,19.7276,VALID,345,VALID,0.60902,
2005-06-01, 01:00:00,VALID,917.227,VALID,0,VALID,98.173,VALID,0,VALID,19.7273,VALID,337,VALID,0.252287,
2005-06-01, 01:01:00,VALID,917.202,VALID,0,VALID,98.0229,VALID,0,VALID,19.7077,VALID,336,VALID,0,
2005-06-01, 01:02:00,VALID,917.196,VALID,0,VALID,98.0611,VALID,0,VALID,19.7216,VALID,336,VALID,0.000887784,
2005-06-01, 01:03:00,VALID,917.188,VALID,0,VALID,98.1831,VALID,0,VALID,19.7144,VALID,336,VALID,0.000571646,
2005-06-01, 01:04:00,VALID,917.208,VALID,0,VALID,98.3599,VALID,0,VALID,19.7507,VALID,336,VALID,0.19122,
2005-06-01, 01:05:00,VALID,917.204,VALID,0,VALID,98.4985,VALID,0,VALID,19.7668,VALID,336,VALID,0.0239955,
2005-06-01, 01:06:00,VALID,917.187,VALID,0,VALID,98.4184,VALID,0,VALID,19.7703,VALID,336,VALID,0.0712209,
2005-06-01, 01:07:00,VALID,917.168,VALID,0,VALID,98.2938,VALID,-0.0169808,VALID,19.7536,VALID,336,VALID,0.0637718,
2005-06-01, 01:08:00,VALID,917.147,VALID,0,VALID,97.8741,VALID,-0.0169808,VALID,19.7243,VALID,336,VALID,0.15767,
2005-06-01, 01:09:00,VALID,917.117,VALID,0,VALID,97.2549,VALID,-0.0169808,VALID,19.6727,VALID,336,VALID,0.212028,
2005-06-01, 01:10:00,VALID,917.094,VALID,0,VALID,97.6898,VALID,0.0169808,VALID,19.6473,VALID,339,VALID,0.451882,
2005-06-01, 01:11:00,VALID,917.081,VALID,0,VALID,97.7533,VALID,0.0339617,VALID,19.6245,VALID,348,VALID,0.353161,
2005-06-01, 01:12:00,VALID,917.07,VALID,0,VALID,97.8309,VALID,0,VALID,19.5885,VALID,348,VALID,0.0557528,
2005-06-01, 01:13:00,VALID,917.064,VALID,0,VALID,97.8958,VALID,-0.0169808,VALID,19.5698,VALID,348,VALID,0.0435547,
2005-06-01, 01:14:00,VALID,917.057,VALID,0,VALID,98.0789,VALID,-0.0169808,VALID,19.5728,VALID,348,VALID,0.378906,
2005-06-01, 01:15:00,VALID,917.053,VALID,0,VALID,97.7393,VALID,0,VALID,19.5731,VALID,348,VALID,0.113021,
2005-06-01, 01:16:00,VALID,917.036,VALID,0,VALID,97.4113,VALID,0,VALID,19.5336,VALID,348,VALID,0.0859375,
2005-06-01, 01:17:00,VALID,917.02,VALID,0,VALID,97.6465,VALID,0,VALID,19.5313,VALID,348,VALID,0.108854,
2005-06-01, 01:18:00,VALID,916.995,VALID,0,VALID,97.7266,VALID,0,VALID,19.5207,VALID,348,VALID,0,
2005-06-01, 01:19:00,VALID,916.97,VALID,0,VALID,97.7304,VALID,0.0169808,VALID,19.5341,VALID,348,VALID,0.0305398,
2005-06-01, 01:20:00,VALID,916.952,VALID,0,VALID,97.8474,VALID,0.0169808,VALID,19.5405,VALID,348,VALID,0.209223,
2005-06-01, 01:21:00,VALID,916.923,VALID,0,VALID,97.56,VALID,0,VALID,19.5306,VALID,12,VALID,0.468932,
2005-06-01, 01:22:00,VALID,916.908,VALID,0,VALID,97.7851,VALID,0,VALID,19.5149,VALID,56,VALID,0.542683,
2005-06-01, 01:23:00,VALID,916.909,VALID,0,VALID,97.7254,VALID,0,VALID,19.4859,VALID,60,VALID,0.514672,
2005-06-01, 01:24:00,VALID,916.924,VALID,0,VALID,97.6173,VALID,0,VALID,19.4474,VALID,63,VALID,0.475852,
2005-06-01, 01:25:00,VALID,916.936,VALID,0,VALID,97.7254,VALID,0,VALID,19.3982,VALID,97,VALID,0.34654,
2005-06-01, 01:26:00,VALID,916.929,VALID,0,VALID,97.7457,VALID,-0.0169808,VALID,19.357,VALID,97,VALID,0.19809,
2005-06-01, 01:27:00,VALID,916.915,VALID,0,VALID,96.5161,VALID,-0.0169808,VALID,19.2117,VALID,97,VALID,0,
2005-06-01, 01:28:00,VALID,916.894,VALID,0,VALID,97.3019,VALID,-0.0169808,VALID,19.118,VALID,97,VALID,0.37934,
2005-06-01, 01:29:00,VALID,916.857,VALID,0,VALID,98.6892,VALID,0,VALID,19.1081,VALID,97,VALID,0.716546,
2005-06-01, 01:30:00,VALID,916.813,VALID,0,VALID,99.2958,VALID,0,VALID,19.1243,VALID,97,VALID,1.00449,
2005-06-01, 01:31:00,VALID,916.78,VALID,0,VALID,99.4446,VALID,-0.0339617,VALID,19.1245,VALID,105,VALID,1.05371,
2005-06-01, 01:32:00,VALID,916.749,VALID,0,VALID,99.3517,VALID,-0.0169808,VALID,19.0825,VALID,98,VALID,0.86875,
2005-06-01, 01:33:00,VALID,916.734,VALID,0,VALID,99.4229,VALID,-0.0169808,VALID,19.0083,VALID,89,VALID,0.717634,
2005-06-01, 01:34:00,VALID,916.693,VALID,0,VALID,99.7737,VALID,0,VALID,18.9792,VALID,88,VALID,0.662972,
2005-06-01, 01:35:00,VALID,916.654,VALID,0,VALID,100,VALID,-0.0339617,VALID,18.9896,VALID,89,VALID,0.825639,
2005-06-01, 01:36:00,VALID,916.639,VALID,0,VALID,100,VALID,0,VALID,18.9765,VALID,90,VALID,0.746185,
2005-06-01, 01:37:00,VALID,916.616,VALID,0,VALID,100,VALID,-0.0169808,VALID,18.9442,VALID,90,VALID,0.671342,
2005-06-01, 01:38:00,VALID,916.592,VALID,0,VALID,100,VALID,-0.0169808,VALID,18.9052,VALID,90,VALID,0.826563,
2005-06-01, 01:39:00,VALID,916.572,VALID,0,VALID,100,VALID,-0.0169808,VALID,18.8888,VALID,90,VALID,0.915551,
2005-06-01, 01:40:00,VALID,916.541,VALID,0,VALID,100,VALID,-0.0509425,VALID,18.8893,VALID,90,VALID,0.848028,
2005-06-01, 01:41:00,VALID,916.526,VALID,0,VALID,100,VALID,-0.0169808,VALID,18.8794,VALID,94,VALID,0.772236,
2005-06-01, 01:42:00,VALID,916.485,VALID,0,VALID,100,VALID,-0.0169808,VALID,18.8798,VALID,119,VALID,0.755327,
2005-06-01, 01:43:00,VALID,916.463,VALID,0,VALID,100,VALID,0,VALID,18.8699,VALID,121,VALID,0.627725,
2005-06-01, 01:44:00,VALID,916.442,VALID,0,VALID,100,VALID,-0.0169808,VALID,18.8531,VALID,130,VALID,0.632626,
2005-06-01, 01:45:00,VALID,916.422,VALID,0,VALID,100,VALID,0,VALID,18.8602,VALID,132,VALID,0.59375,
2005-06-01, 01:46:00,VALID,916.409,VALID,0,VALID,100,VALID,-0.0169808,VALID,18.8538,VALID,132,VALID,0.316229,
2005-06-01, 01:47:00,VALID,916.423,VALID,0,VALID,100,VALID,0,VALID,18.7961,VALID,132,VALID,0.000363372,
2005-06-01, 01:48:00,VALID,916.429,VALID,0,VALID,100,VALID,0,VALID,18.7371,VALID,134,VALID,0.25657,
2005-06-01, 01:49:00,VALID,916.431,VALID,0,VALID,100,VALID,-0.0339617,VALID,18.7989,VALID,141,VALID,0.21984,
2005-06-01, 01:50:00,VALID,916.424,VALID,0,VALID,100,VALID,-0.0169808,VALID,18.899,VALID,141,VALID,0.0577762,
2005-06-01, 01:51:00,VALID,916.414,VALID,0,VALID,100,VALID,-0.0339617,VALID,18.9566,VALID,141,VALID,0.0450149,
2005-06-01, 01:52:00,VALID,916.384,VALID,0,VALID,100,VALID,0,VALID,18.9663,VALID,140,VALID,0.31994,
2005-06-01, 01:53:00,VALID,916.359,VALID,0,VALID,100,VALID,0,VALID,18.9474,VALID,140,VALID,0.467297,
2005-06-01, 01:54:00,VALID,916.349,VALID,0,VALID,100,VALID,-0.0169808,VALID,18.9444,VALID,135,VALID,0.605755,
2005-06-01, 01:55:00,VALID,916.333,VALID,0,VALID,100,VALID,-0.0339617,VALID,18.9857,VALID,124,VALID,0.628997,
2005-06-01, 01:56:00,VALID,916.337,VALID,0,VALID,100,VALID,0,VALID,18.9765,VALID,108,VALID,0.674665,
2005-06-01, 01:57:00,VALID,916.332,VALID,0,VALID,100,VALID,-0.0169808,VALID,18.8766,VALID,102,VALID,0.659299,
2005-06-01, 01:58:00,VALID,916.324,VALID,0,VALID,100,VALID,-0.0169808,VALID,18.7892,VALID,99,VALID,0.666424,
2005-06-01, 01:59:00,VALID,916.334,VALID,0,VALID,100,VALID,0,VALID,18.7249,VALID,88,VALID,0.65483,
2005-06-01, 02:00:00,VALID,916.334,VALID,0,VALID,100,VALID,-0.0169808,VALID,18.6179,VALID,84,VALID,0.594752,
2005-06-01, 02:01:00,VALID,916.33,VALID,0,VALID,100,VALID,-0.0339617,VALID,18.5833,VALID,54,VALID,0.72433,
2005-06-01, 02:02:00,VALID,916.306,VALID,0,VALID,100,VALID,0,VALID,18.6504,VALID,26,VALID,0.851042,
2005-06-01, 02:03:00,VALID,916.306,VALID,0,VALID,100,VALID,-0.0169808,VALID,18.7542,VALID,26,VALID,0.84355,
2005-06-01, 02:04:00,VALID,916.3,VALID,0,VALID,100,VALID,-0.0339617,VALID,18.8381,VALID,33,VALID,0.780185,
2005-06-01, 02:05:00,VALID,916.298,VALID,0,VALID,100,VALID,-0.0339617,VALID,18.8828,VALID,47,VALID,0.748355,
2005-06-01, 02:06:00,VALID,916.283,VALID,0,VALID,100,VALID,-0.0169808,VALID,18.9248,VALID,51,VALID,0.710428,
2005-06-01, 02:07:00,VALID,916.289,VALID,0,VALID,100,VALID,-0.0339617,VALID,18.9601,VALID,51,VALID,0.522266,
2005-06-01, 02:08:00,VALID,916.322,VALID,0,VALID,100,VALID,-0.0169808,VALID,18.9799,VALID,51,VALID,0.145894,
2005-06-01, 02:09:00,VALID,916.333,VALID,0,VALID,100,VALID,-0.0169808,VALID,18.9864,VALID,51,VALID,0.229469,
2005-06-01, 02:10:00,VALID,916.351,VALID,0,VALID,100,VALID,-0.0339617,VALID,18.9675,VALID,51,VALID,0.204578,
2005-06-01, 02:11:00,VALID,916.377,VALID,0,VALID,99.8909,VALID,-0.0169808,VALID,18.9412,VALID,51,VALID,0.0053267,
2005-06-01, 02:12:00,VALID,916.396,VALID,0,VALID,99.6696,VALID,-0.0509425,VALID,18.9218,VALID,51,VALID,0,
2005-06-01, 02:13:00,VALID,916.404,VALID,0,VALID,99.4916,VALID,-0.0169808,VALID,18.8798,VALID,51,VALID,0,
2005-06-01, 02:14:00,VALID,916.394,VALID,0,VALID,99.545,VALID,-0.0339617,VALID,18.8798,VALID,51,VALID,0,
2005-06-01, 02:15:00,VALID,916.396,VALID,0,VALID,99.6277,VALID,0,VALID,18.8605,VALID,51,VALID,0,
2005-06-01, 02:16:00,VALID,916.373,VALID,0,VALID,99.6798,VALID,-0.0169808,VALID,18.8471,VALID,51,VALID,0,
2005-06-01, 02:17:00,VALID,916.383,VALID,0,VALID,99.5399,VALID,0,VALID,18.8247,VALID,51,VALID,0,
2005-06-01, 02:18:00,VALID,916.36,VALID,0,VALID,99.3479,VALID,-0.0169808,VALID,18.8016,VALID,51,VALID,0,
2005-06-01, 02:19:00,VALID,916.334,VALID,0,VALID,99.428,VALID,-0.0169808,VALID,18.7959,VALID,51,VALID,0,
2005-06-01, 02:20:00,VALID,916.329,VALID,0,VALID,99.9425,VALID,0,VALID,18.854,VALID,50,VALID,0.142078,
2005-06-01, 02:21:00,VALID,916.337,VALID,0,VALID,99.9303,VALID,0,VALID,18.851,VALID,50,VALID,0.00560897,
2005-06-01, 02:22:00,VALID,916.323,VALID,0,VALID,99.9476,VALID,0.0169808,VALID,18.8404,VALID,50,VALID,0.000195313,
2005-06-01, 02:23:00,VALID,916.331,VALID,0,VALID,100,VALID,0.0169808,VALID,18.8672,VALID,50,VALID,0,
2005-06-01, 02:24:00,VALID,916.327,VALID,0,VALID,99.9303,VALID,0,VALID,18.8374,VALID,50,VALID,0.0561756,
2005-06-01, 02:25:00,VALID,916.318,VALID,0,VALID,99.5463,VALID,0.0339617,VALID,18.7728,VALID,50,VALID,0.179306,
2005-06-01, 02:26:00,VALID,916.323,VALID,0,VALID,99.5857,VALID,0.0169808,VALID,18.7405,VALID,50,VALID,0,
2005-06-01, 02:27:00,VALID,916.313,VALID,0,VALID,99.573,VALID,0.0169808,VALID,18.6983,VALID,50,VALID,0,
2005-06-01, 02:28:00,VALID,916.288,VALID,0,VALID,99.5679,VALID,0.0169808,VALID,18.6596,VALID,50,VALID,0.0222656,
2005-06-01, 02:29:00,VALID,916.264,VALID,0,VALID,99.8357,VALID,0,VALID,18.6665,VALID,50,VALID,0.0670732,
2005-06-01, 02:30:00,VALID,916.24,VALID,0,VALID,100,VALID,0,VALID,18.712,VALID,48,VALID,0.393164,
2005-06-01, 02:31:00,VALID,916.226,VALID,0,VALID,100,VALID,0,VALID,18.7701,VALID,14,VALID,0.473474,
2005-06-01, 02:32:00,VALID,916.228,VALID,0,VALID,100,VALID,0,VALID,18.8113,VALID,336,VALID,0.496795,
2005-06-01, 02:33:00,VALID,916.221,VALID,0,VALID,100,VALID,0,VALID,18.8344,VALID,313,VALID,0.398242,
2005-06-01, 02:34:00,VALID,916.219,VALID,0,VALID,100,VALID,0,VALID,18.7795,VALID,313,VALID,0.155617,
2005-06-01, 02:35:00,VALID,916.218,VALID,0,VALID,100,VALID,0,VALID,18.7639,VALID,313,VALID,0.0691106,
2005-06-01, 02:36:00,VALID,916.225,VALID,0,VALID,100,VALID,0,VALID,18.7306,VALID,313,VALID,0.0424924,
2005-06-01, 02:37:00,VALID,916.221,VALID,0,VALID,100,VALID,0,VALID,18.7184,VALID,313,VALID,0.0883557,
2005-06-01, 02:38:00,VALID,916.195,VALID,0,VALID,100,VALID,0,VALID,18.7701,VALID,313,VALID,0.346912,
2005-06-01, 02:39:00,VALID,916.17,VALID,0,VALID,100,VALID,0,VALID,18.7477,VALID,313,VALID,0.0915698,
2005-06-01, 02:40:00,VALID,916.125,VALID,0,VALID,100,VALID,0,VALID,18.6536,VALID,313,VALID,0.192255,
2005-06-01, 02:41:00,VALID,916.093,VALID,0,VALID,100,VALID,0,VALID,18.6668,VALID,9,VALID,0.382431,
2005-06-01, 02:42:00,VALID,916.064,VALID,0,VALID,100,VALID,0,VALID,18.741,VALID,11,VALID,0.425686,
2005-06-01, 02:43:00,VALID,916.04,VALID,0,VALID,100,VALID,0,VALID,18.786,VALID,47,VALID,0.740625,
2005-06-01, 02:44:00,VALID,916.022,VALID,0,VALID,100,VALID,-0.0169808,VALID,18.7931,VALID,63,VALID,1.0218,
2005-06-01, 02:45:00,VALID,916.017,VALID,0,VALID,100,VALID,0,VALID,18.7733,VALID,75,VALID,1.15062,
2005-06-01, 02:46:00,VALID,916.017,VALID,0,VALID,100,VALID,0,VALID,18.7602,VALID,86,VALID,1.02308,
2005-06-01, 02:47:00,VALID,916.029,VALID,0,VALID,100,VALID,0,VALID,18.7832,VALID,96,VALID,0.800872,
2005-06-01, 02:48:00,VALID,916.028,VALID,0,VALID,100,VALID,-0.0339617,VALID,18.7865,VALID,96,VALID,0.530887,
2005-06-01, 02:49:00,VALID,916.033,VALID,0,VALID,100,VALID,0,VALID,18.7733,VALID,96,VALID,0.393229,
2005-06-01, 02:50:00,VALID,916.02,VALID,0,VALID,99.9865,VALID,-0.0169808,VALID,18.7703,VALID,96,VALID,0.480755,
2005-06-01, 02:51:00,VALID,916.016,VALID,0,VALID,99.8311,VALID,-0.0169808,VALID,18.7673,VALID,97,VALID,0.568598,
2005-06-01, 02:52:00,VALID,916.009,VALID,0,VALID,99.751,VALID,0.0339617,VALID,18.7408,VALID,103,VALID,0.556445,
2005-06-01, 02:53:00,VALID,915.999,VALID,0,VALID,99.2589,VALID,0,VALID,18.6765,VALID,103,VALID,0.274962,
2005-06-01, 02:54:00,VALID,916.001,VALID,0,VALID,99.0682,VALID,0,VALID,18.6183,VALID,103,VALID,0.126116,
2005-06-01, 02:55:00,VALID,916.013,VALID,0,VALID,99.0974,VALID,0,VALID,18.557,VALID,103,VALID,0.00213068,
2005-06-01, 02:56:00,VALID,916.042,VALID,0,VALID,99.6862,VALID,-0.0339617,VALID,18.5637,VALID,103,VALID,0,
2005-06-01, 02:57:00,VALID,916.058,VALID,0,VALID,99.6938,VALID,0,VALID,18.5835,VALID,103,VALID,0.122093,
2005-06-01, 02:58:00,VALID,916.083,VALID,0,VALID,99.7447,VALID,0.0169808,VALID,18.5729,VALID,103,VALID,0.118459,
2005-06-01, 02:59:00,VALID,916.093,VALID,0,VALID,99.9926,VALID,-0.0169808,VALID,18.6183,VALID,103,VALID,0.380327,
2005-06-01, 03:00:00,VALID,916.066,VALID,0,VALID,100,VALID,0,VALID,18.6894,VALID,103,VALID,0.0954241,
2005-06-01, 03:01:00,VALID,916.074,VALID,0,VALID,100,VALID,-0.0169808,VALID,18.7124,VALID,103,VALID,0,
2005-06-01, 03:02:00,VALID,916.076,VALID,0,VALID,99.9402,VALID,0,VALID,18.6958,VALID,103,VALID,0.00090843,
2005-06-01, 03:03:00,VALID,916.081,VALID,0,VALID,99.5883,VALID,0,VALID,18.6799,VALID,103,VALID,0.00177557,
2005-06-01, 03:04:00,VALID,916.1,VALID,0,VALID,99.4662,VALID,0.0169808,VALID,18.6449,VALID,94,VALID,0.123402,
2005-06-01, 03:05:00,VALID,916.111,VALID,0,VALID,99.3301,VALID,0,VALID,18.6158,VALID,82,VALID,0.144903,
2005-06-01, 03:06:00,VALID,916.122,VALID,0,VALID,99.3441,VALID,0,VALID,18.593,VALID,82,VALID,0.0874619,
2005-06-01, 03:07:00,VALID,916.123,VALID,0,VALID,99.6938,VALID,0.0169808,VALID,18.6218,VALID,82,VALID,0.147135,
2005-06-01, 03:08:00,VALID,916.13,VALID,0,VALID,99.9596,VALID,-0.0169808,VALID,18.6702,VALID,80,VALID,0.296196,
2005-06-01, 03:09:00,VALID,916.131,VALID,0,VALID,99.8451,VALID,-0.0169808,VALID,18.703,VALID,79,VALID,0.214935,
2005-06-01, 03:10:00,VALID,916.128,VALID,0,VALID,99.4382,VALID,0,VALID,18.7097,VALID,79,VALID,0.231286,
2005-06-01, 03:11:00,VALID,916.137,VALID,0,VALID,99.409,VALID,0,VALID,18.6864,VALID,79,VALID,0.233842,
2005-06-01, 03:12:00,VALID,916.137,VALID,0,VALID,99.7383,VALID,0,VALID,18.7249,VALID,79,VALID,0.27096,
2005-06-01, 03:13:00,VALID,916.137,VALID,0,VALID,99.8922,VALID,0,VALID,18.7768,VALID,79,VALID,0.225836,
2005-06-01, 03:14:00,VALID,916.134,VALID,0,VALID,99.9062,VALID,0,VALID,18.8289,VALID,79,VALID,0.311435,
2005-06-01, 03:15:00,VALID,916.136,VALID,0,VALID,99.5081,VALID,-0.0169808,VALID,18.8252,VALID,79,VALID,0.331659,
2005-06-01, 03:16:00,VALID,916.126,VALID,0,VALID,99.3848,VALID,-0.0169808,VALID,18.8349,VALID,79,VALID,0.439918,
2005-06-01, 03:17:00,VALID,916.127,VALID,0,VALID,98.8711,VALID,0.0169808,VALID,18.8061,VALID,79,VALID,0.611555,
2005-06-01, 03:18:00,VALID,916.129,VALID,0,VALID,98.5379,VALID,0,VALID,18.7676,VALID,79,VALID,0.509943,
2005-06-01, 03:19:00,VALID,916.122,VALID,0,VALID,97.8398,VALID,0,VALID,18.6412,VALID,75,VALID,0.562109,
2005-06-01, 03:20:00,VALID,916.115,VALID,0,VALID,98.6905,VALID,0,VALID,18.6094,VALID,26,VALID,0.727121,
2005-06-01, 03:21:00,VALID,916.105,VALID,0,VALID,99.5043,VALID,0,VALID,18.6186,VALID,25,VALID,0.642671,
2005-06-01, 03:22:00,VALID,916.114,VALID,0,VALID,99.8807,VALID,0,VALID,18.6543,VALID,25,VALID,0.484197,
2005-06-01, 03:23:00,VALID,916.134,VALID,0,VALID,99.6569,VALID,-0.0169808,VALID,18.6578,VALID,25,VALID,0.0951705,
2005-06-01, 03:24:00,VALID,916.136,VALID,0,VALID,99.2932,VALID,0,VALID,18.6255,VALID,25,VALID,0.0657986,
2005-06-01, 03:25:00,VALID,916.167,VALID,0,VALID,98.9982,VALID,0,VALID,18.5642,VALID,52,VALID,0.427827,
2005-06-01, 03:26:00,VALID,916.176,VALID,0,VALID,99.0644,VALID,0,VALID,18.519,VALID,70,VALID,0.385603,
2005-06-01, 03:27:00,VALID,916.186,VALID,0,VALID,99.4471,VALID,0,VALID,18.4996,VALID,82,VALID,0.55506,
2005-06-01, 03:28:00,VALID,916.186,VALID,0,VALID,99.6366,VALID,-0.0169808,VALID,18.4869,VALID,113,VALID,0.641555,
2005-06-01, 03:29:00,VALID,916.175,VALID,0,VALID,99.793,VALID,-0.0169808,VALID,18.4802,VALID,119,VALID,0.536932,
2005-06-01, 03:30:00,VALID,916.151,VALID,0,VALID,99.9494,VALID,-0.0169808,VALID,18.4768,VALID,119,VALID,0.466797,
2005-06-01, 03:31:00,VALID,916.132,VALID,0,VALID,99.9967,VALID,-0.0169808,VALID,18.4606,VALID,119,VALID,0.283026,
2005-06-01, 03:32:00,VALID,916.105,VALID,0,VALID,100,VALID,-0.0169808,VALID,18.4738,VALID,119,VALID,0.359722,
2005-06-01, 03:33:00,VALID,916.085,VALID,0,VALID,100,VALID,0.0169808,VALID,18.4835,VALID,119,VALID,0.440492,
2005-06-01, 03:34:00,VALID,916.082,VALID,0,VALID,100,VALID,0,VALID,18.4768,VALID,119,VALID,0.48971,
2005-06-01, 03:35:00,VALID,916.081,VALID,0,VALID,100,VALID,-0.0169808,VALID,18.4805,VALID,119,VALID,0.0381747,
2005-06-01, 03:36:00,VALID,916.05,VALID,0,VALID,100,VALID,0,VALID,18.4544,VALID,119,VALID,0.328993,
2005-06-01, 03:37:00,VALID,916.025,VALID,0,VALID,100,VALID,0,VALID,18.4187,VALID,119,VALID,0.59032,
2005-06-01, 03:38:00,VALID,916.005,VALID,0,VALID,100,VALID,0,VALID,18.4057,VALID,119,VALID,0.390262,
2005-06-01, 03:39:00,VALID,915.991,VALID,0,VALID,100,VALID,0,VALID,18.3668,VALID,119,VALID,0.34811,